EN

Hourly Weather Smolevcy

Today, 26 October, Monday

Time Temperature Precipitation Wind Pressure Humidity
00:00 +7°C° 0 mm 2 mps 748 mmHg 94%
01:00 +7°C° 0 mm 2 mps 748 mmHg 94%
02:00 +6°C° 0 mm 2 mps 748 mmHg 94%
03:00 +6°C° 0 mm 2 mps 748 mmHg 94%
04:00 +6°C° 0 mm 2 mps 748 mmHg 95%
05:00 +6°C° 0 mm 2 mps 748 mmHg 95%
06:00 +5°C° 0 mm 3 mps 748 mmHg 96%
07:00 +7°C° 0 mm 3 mps 748 mmHg 96%
08:00 +7°C° 0 mm 3 mps 748 mmHg 96%
09:00 +8°C° 0 mm 3 mps 748 mmHg 92%
10:00 +10°C° 0 mm 4 mps 748 mmHg 87%
11:00 +11°C° 0 mm 4 mps 748 mmHg 83%
12:00 +10°C° 0 mm 5 mps 748 mmHg 80%
13:00 +12°C° 0 mm 5 mps 748 mmHg 77%
14:00 +13°C° 0 mm 5 mps 747 mmHg 74%
15:00 +12°C° 0 mm 5 mps 747 mmHg 76%
16:00 +10°C° 0 mm 5 mps 747 mmHg 79%
17:00 +10°C° 0 mm 5 mps 746 mmHg 81%
18:00 +10°C° 0 mm 5 mps 747 mmHg 81%
19:00 +10°C° 0 mm 5 mps 747 mmHg 82%
20:00 +9°C° 0 mm 5 mps 747 mmHg 82%
21:00 +9°C° 0 mm 5 mps 747 mmHg 83%
22:00 +9°C° 0 mm 5 mps 747 mmHg 84%
23:00 +8°C° 0 mm 4 mps 747 mmHg 85%

Tomorrow, 27 October, Tuesday

Time Temperature Precipitation Wind Pressure Humidity
00:00 +8°C° 0 mm 5 mps 747 mmHg 86%
01:00 +8°C° 0 mm 5 mps 747 mmHg 88%
02:00 +7°C° 0 mm 5 mps 747 mmHg 90%
03:00 +7°C° 0 mm 5 mps 746 mmHg 90%
04:00 +7°C° 0 mm 5 mps 746 mmHg 90%
05:00 +7°C° 0 mm 5 mps 746 mmHg 91%
06:00 +7°C° 0 mm 5 mps 746 mmHg 90%
07:00 +7°C° 0 mm 5 mps 746 mmHg 90%
08:00 +7°C° 0 mm 5 mps 746 mmHg 89%
09:00 +8°C° 0 mm 5 mps 746 mmHg 86%
10:00 +9°C° 0 mm 6 mps 747 mmHg 82%
11:00 +10°C° 0 mm 6 mps 747 mmHg 79%
12:00 +11°C° 0 mm 6 mps 747 mmHg 78%
13:00 +13°C° 0 mm 6 mps 747 mmHg 77%
14:00 +13°C° 0 mm 6 mps 747 mmHg 75%
15:00 +13°C° 0 mm 5 mps 747 mmHg 78%
16:00 +12°C° 0 mm 5 mps 747 mmHg 80%
17:00 +12°C° 0 mm 5 mps 747 mmHg 82%
18:00 +10°C° 0 mm 5 mps 747 mmHg 84%
19:00 +10°C° 0 mm 5 mps 747 mmHg 85%
20:00 +9°C° 0 mm 5 mps 747 mmHg 86%
21:00 +9°C° 0 mm 5 mps 747 mmHg 87%
22:00 +9°C° 0 mm 5 mps 747 mmHg 88%
23:00 +8°C° 0 mm 5 mps 747 mmHg 89%

Day after tomorrow, 28 October, Wednesday

Time Temperature Precipitation Wind Pressure Humidity
00:00 +8°C° 0 mm 5 mps 747 mmHg 89%
01:00 +8°C° 0 mm 5 mps 747 mmHg 90%
02:00 +8°C° 0 mm 4 mps 746 mmHg 90%
03:00 +8°C° 0 mm 5 mps 746 mmHg 90%
04:00 +8°C° 0 mm 5 mps 746 mmHg 90%
05:00 +8°C° 0 mm 5 mps 746 mmHg 90%
06:00 +8°C° 0 mm 5 mps 746 mmHg 91%
07:00 +8°C° 0 mm 5 mps 746 mmHg 91%
08:00 +7°C° 0 mm 4 mps 747 mmHg 92%
09:00 +10°C° 0 mm 4 mps 747 mmHg 89%
10:00 +11°C° 0 mm 4 mps 747 mmHg 86%
11:00 +12°C° 0 mm 4 mps 747 mmHg 83%
12:00 +12°C° 0 mm 4 mps 747 mmHg 83%
13:00 +12°C° 0 mm 3 mps 747 mmHg 82%
14:00 +13°C° 0 mm 3 mps 747 mmHg 82%
15:00 +13°C° 0 mm 3 mps 747 mmHg 83%
16:00 +12°C° 0 mm 3 mps 747 mmHg 85%
17:00 +12°C° 0 mm 3 mps 747 mmHg 87%
18:00 +12°C° 0 mm 3 mps 747 mmHg 87%
19:00 +12°C° 0 mm 3 mps 747 mmHg 88%
20:00 +12°C° 0 mm 3 mps 748 mmHg 88%
21:00 +12°C° 0 mm 3 mps 748 mmHg 88%
22:00 +12°C° 0 mm 3 mps 748 mmHg 88%
23:00 +12°C° 0 mm 3 mps 748 mmHg 89%

29 October, Thursday

Time Temperature Precipitation Wind Pressure Humidity
00:00 +11°C° 0 mm 3 mps 748 mmHg 88%
01:00 +11°C° 0 mm 4 mps 747 mmHg 88%
02:00 +11°C° 0 mm 4 mps 747 mmHg 88%
03:00 +11°C° 0 mm 4 mps 747 mmHg 88%
04:00 +11°C° 0 mm 3 mps 747 mmHg 87%
05:00 +11°C° 0 mm 3 mps 747 mmHg 87%
06:00 +10°C° 0 mm 3 mps 747 mmHg 87%
07:00 +10°C° 0 mm 4 mps 747 mmHg 87%
08:00 +10°C° 0 mm 4 mps 747 mmHg 87%
09:00 +11°C° 0 mm 4 mps 747 mmHg 85%
10:00 +11°C° 0 mm 4 mps 747 mmHg 84%
11:00 +11°C° 0 mm 4 mps 747 mmHg 83%
12:00 +11°C° 0 mm 4 mps 747 mmHg 81%
13:00 +12°C° 0 mm 4 mps 747 mmHg 80%
14:00 +12°C° 0 mm 4 mps 747 mmHg 79%
15:00 +11°C° 0 mm 4 mps 747 mmHg 82%
16:00 +11°C° 0 mm 4 mps 747 mmHg 84%
17:00 +11°C° 0 mm 3 mps 747 mmHg 86%
18:00 +11°C° 0 mm 3 mps 747 mmHg 88%
19:00 +10°C° 0 mm 3 mps 747 mmHg 89%
20:00 +10°C° 0 mm 3 mps 747 mmHg 91%
21:00 +10°C° 0 mm 4 mps 747 mmHg 91%
22:00 +10°C° 0 mm 4 mps 747 mmHg 91%
23:00 +10°C° 0 mm 4 mps 747 mmHg 91%

30 October, Friday

Time Temperature Precipitation Wind Pressure Humidity
00:00 +10°C° 0.2 mm 3 mps 747 mmHg 90%
01:00 +10°C° 0.2 mm 3 mps 747 mmHg 89%
02:00 +10°C° 0.2 mm 3 mps 747 mmHg 88%
03:00 +9°C° 0 mm 3 mps 747 mmHg 90%
04:00 +8°C° 0 mm 3 mps 747 mmHg 92%
05:00 +7°C° 0 mm 2 mps 747 mmHg 94%
06:00 +7°C° 0 mm 2 mps 748 mmHg 94%
07:00 +7°C° 0 mm 2 mps 748 mmHg 94%
08:00 +7°C° 0 mm 2 mps 748 mmHg 94%
09:00 +8°C° 0 mm 3 mps 748 mmHg 88%
10:00 +9°C° 0 mm 3 mps 748 mmHg 82%
11:00 +10°C° 0 mm 4 mps 748 mmHg 76%
12:00 +10°C° 0 mm 4 mps 748 mmHg 75%
13:00 +10°C° 0 mm 5 mps 748 mmHg 73%
14:00 +10°C° 0 mm 5 mps 748 mmHg 71%
15:00 +9°C° 0 mm 5 mps 747 mmHg 73%
16:00 +9°C° 0 mm 5 mps 747 mmHg 75%
17:00 +9°C° 0 mm 5 mps 747 mmHg 76%
18:00 +9°C° 0.1 mm 5 mps 747 mmHg 79%
19:00 +9°C° 0.1 mm 5 mps 747 mmHg 81%
20:00 +9°C° 0.1 mm 6 mps 747 mmHg 83%
21:00 +9°C° 0.4 mm 6 mps 747 mmHg 85%
22:00 +9°C° 0.4 mm 5 mps 747 mmHg 88%
23:00 +9°C° 0.4 mm 5 mps 746 mmHg 90%

31 October, Saturday

Time Temperature Precipitation Wind Pressure Humidity
00:00 +9°C° 0.2 mm 5 mps 746 mmHg 91%
01:00 +9°C° 0.2 mm 5 mps 746 mmHg 91%
02:00 +9°C° 0.2 mm 5 mps 746 mmHg 91%
03:00 +9°C° 0 mm 5 mps 746 mmHg 91%
04:00 +9°C° 0 mm 5 mps 747 mmHg 91%
05:00 +10°C° 0 mm 5 mps 747 mmHg 91%
06:00 +10°C° 0 mm 5 mps 747 mmHg 91%
07:00 +11°C° 0 mm 4 mps 747 mmHg 92%
08:00 +11°C° 0 mm 4 mps 748 mmHg 92%
Show more

We Need Your Consent

Meteoprog and our Service Providers may store and access personal data such as cookies, device identifiers or other similar technologies on your device and process such data to personalise content and ads, as well as provide social media features and to analyse the traffic.

  • Store and/or access information on your device

    Cookies, device identifiers or other information can be stored or accessed on your device for the purposes indicated above.

  • Personalised ads and content, ad and content measurement, audience insights, and products development

    Ads and content can be personalised based on a profile. More data can be added to better personalise ads and content. Ad and content performance can be measured. Insights about the audience who saw the ads and content can be derived. Such data can be used to develop or improve user’s experience, systems and software.

By clicking ‘I Agree’ you will allow the use of indicated cookies, device identifiers, web beacons or other similar technologies. Your settings can be changed in the browser on your device.

For certain purposes, legitimate interests may be relied on, rather than consent. You can read more about this in our Privacy and Cookie Policy.